Time,TemperatureF,DewpointF,PressureIn,WindDirection,WindDirectionDegrees,WindSpeedMPH,WindSpeedGustMPH,Humidity,HourlyPrecipIn,Conditions,Clouds,dailyrainin,SoftwareType,DateUTC
2013-03-01 00:00:00,41.4,30.1,29.83,West,270,3.5,3.5,64,0.00,CLR,,0.00,WeatherDisplay:10.37,2013-03-01 05:00:00,
2013-03-01 00:05:00,41.2,29.9,29.83,NNW,338,6.9,6.9,64,0.00,CLR,,0.00,WeatherDisplay:10.37,2013-03-01 05:05:00,
2013-03-01 00:06:00,41.2,29.9,29.83,West,270,4.8,4.8,64,0.00,CLR,,0.00,WeatherDisplay:10.37,2013-03-01 05:06:00,
2013-03-01 00:11:00,41.5,30.2,29.83,NW,315,5.8,5.8,64,0.00,CLR,,0.00,WeatherDisplay:10.37,2013-03-01 05:11:00,
2013-03-01 00:16:00,41.5,29.8,29.83,WNW,292,3.5,3.6,63,0.00,CLR,,0.00,WeatherDisplay:10.37,2013-03-01 05:16:00,
2013-03-01 00:21:00,41.2,29.5,29.83,NW,315,5.6,5.6,63,0.00,CLR,,0.00,WeatherDisplay:10.37,2013-03-01 05:21:00,
2013-03-01 00:26:00,41.4,29.7,29.83,NW,315,5.8,5.8,63,0.00,CLR,,0.00,WeatherDisplay:10.37,2013-03-01 05:26:00,
2013-03-01 00:31:00,41.4,29.3,29.83,West,270,4.8,4.8,62,0.00,CLR,,0.00,WeatherDisplay:10.37,2013-03-01 05:31:00,
2013-03-01 00:36:00,41.2,29.5,29.83,West,270,3.5,3.5,63,0.00,CLR,,0.00,WeatherDisplay:10.37,2013-03-01 05:36:00,
2013-03-01 00:41:00,41.0,29.7,29.84,NW,315,3.5,3.5,64,0.00,CLR,,0.00,WeatherDisplay:10.37,2013-03-01 05:41:00,
2013-03-01 00:46:00,40.8,29.6,29.84,WNW,292,3.5,3.5,64,0.00,CLR,,0.00,WeatherDisplay:10.37,2013-03-01 05:46:00,
2013-03-01 00:51:00,41.0,29.7,29.83,North,360,8.6,8.6,64,0.00,CLR,,0.00,WeatherDisplay:10.37,2013-03-01 05:51:00,
2013-03-01 00:56:00,40.8,29.6,29.83,NW,315,3.5,3.5,64,0.00,CLR,,0.00,WeatherDisplay:10.37,2013-03-01 05:56:00,
2013-03-01 01:01:00,40.6,29.4,29.83,WNW,292,4.6,4.6,64,0.00,CLR,,0.00,WeatherDisplay:10.37,2013-03-01 06:01:00,
2013-03-01 01:06:00,40.3,29.5,29.84,West,270,0.0,0.0,65,0.00,CLR,,0.00,WeatherDisplay:10.37,2013-03-01 06:06:00,
2013-03-01 01:11:00,40.3,29.5,29.84,WNW,292,2.5,2.5,65,0.00,CLR,,0.00,WeatherDisplay:10.37,2013-03-01 06:11:00,
2013-03-01 01:16:00,40.1,29.6,29.85,NW,315,2.5,2.5,66,0.00,CLR,,0.00,WeatherDisplay:10.37,2013-03-01 06:16:00,
2013-03-01 01:21:00,39.9,29.5,29.85,NW,315,2.5,2.5,66,0.00,CLR,,0.00,WeatherDisplay:10.37,2013-03-01 06:21:00,
2013-03-01 01:26:00,39.7,29.3,29.85,NW,315,2.3,2.3,66,0.00,CLR,,0.00,WeatherDisplay:10.37,2013-03-01 06:26:00,
2013-03-01 01:31:00,39.7,29.3,29.84,NW,315,3.5,3.5,66,0.00,CLR,,0.00,WeatherDisplay:10.37,2013-03-01 06:31:00,
2013-03-01 01:36:00,39.7,29.3,29.84,WNW,292,4.0,4.0,66,0.00,CLR,,0.00,WeatherDisplay:10.37,2013-03-01 06:36:00,
2013-03-01 01:41:00,39.6,29.5,29.84,NW,315,3.5,3.5,67,0.00,CLR,,0.00,WeatherDisplay:10.37,2013-03-01 06:41:00,
2013-03-01 01:46:00,39.6,29.5,29.84,West,270,3.5,3.5,67,0.00,CLR,,0.00,WeatherDisplay:10.37,2013-03-01 06:46:00,
2013-03-01 01:51:00,39.6,29.5,29.84,WNW,292,3.5,3.5,67,0.00,CLR,,0.00,WeatherDisplay:10.37,2013-03-01 06:51:00,
2013-03-01 01:56:00,39.6,29.5,29.84,NNW,338,2.5,2.5,67,0.00,CLR,,0.00,WeatherDisplay:10.37,2013-03-01 06:56:00,
2013-03-01 02:01:00,39.4,29.7,29.84,WNW,292,3.5,3.5,68,0.00,CLR,,0.00,WeatherDisplay:10.37,2013-03-01 07:01:00,
2013-03-01 02:06:00,39.4,29.7,29.85,West,270,3.5,3.6,68,0.00,CLR,,0.00,WeatherDisplay:10.37,2013-03-01 07:06:00,
2013-03-01 02:11:00,39.4,29.7,29.85,NW,315,3.5,3.5,68,0.00,CLR,,0.00,WeatherDisplay:10.37,2013-03-01 07:11:00,
2013-03-01 02:16:00,39.2,29.5,29.84,NW,315,4.6,4.6,68,0.00,CLR,,0.00,WeatherDisplay:10.37,2013-03-01 07:16:00,
2013-03-01 02:21:00,39.2,29.5,29.84,NW,315,2.5,2.5,68,0.00,CLR,,0.00,WeatherDisplay:10.37,2013-03-01 07:21:00,
2013-03-01 02:26:00,39.0,29.3,29.84,WNW,292,3.5,3.5,68,0.00,CLR,,0.00,WeatherDisplay:10.37,2013-03-01 07:26:00,
2013-03-01 02:31:00,38.8,29.1,29.84,WNW,292,4.0,4.0,68,0.00,CLR,,0.00,WeatherDisplay:10.37,2013-03-01 07:31:00,
2013-03-01 02:36:00,38.8,29.1,29.84,NNW,338,3.5,3.5,68,0.00,CLR,,0.00,WeatherDisplay:10.37,2013-03-01 07:36:00,
2013-03-01 02:41:00,38.7,29.0,29.84,NW,315,2.3,2.3,68,0.00,CLR,,0.00,WeatherDisplay:10.37,2013-03-01 07:41:00,
2013-03-01 02:46:00,38.5,29.2,29.84,West,270,3.5,3.5,69,0.00,CLR,,0.00,WeatherDisplay:10.37,2013-03-01 07:46:00,
2013-03-01 02:51:00,38.3,29.0,29.84,West,270,3.5,3.5,69,0.00,CLR,,0.00,WeatherDisplay:10.37,2013-03-01 07:51:00,
2013-03-01 02:56:00,38.3,29.7,29.84,West,270,2.3,2.3,71,0.00,CLR,,0.00,WeatherDisplay:10.37,2013-03-01 07:56:00,
2013-03-01 03:01:00,37.9,29.7,29.84,West,270,0.0,0.0,72,0.00,CLR,,0.00,WeatherDisplay:10.37,2013-03-01 08:01:00,
2013-03-01 03:07:00,37.8,29.6,29.84,West,270,0.0,0.0,72,0.00,CLR,,0.00,WeatherDisplay:10.37,2013-03-01 08:07:00,
2013-03-01 03:12:00,37.4,29.5,29.84,West,270,0.0,0.0,73,0.00,CLR,,0.00,WeatherDisplay:10.37,2013-03-01 08:12:00,
2013-03-01 03:17:00,37.2,29.3,29.84,WNW,292,3.5,3.5,73,0.00,CLR,,0.00,WeatherDisplay:10.37,2013-03-01 08:17:00,
2013-03-01 03:22:00,37.2,29.3,29.84,WNW,292,2.5,2.5,73,0.00,CLR,,0.00,WeatherDisplay:10.37,2013-03-01 08:22:00,
2013-03-01 03:27:00,37.0,28.8,29.84,WNW,292,3.5,3.5,72,0.00,CLR,,0.00,WeatherDisplay:10.37,2013-03-01 08:27:00,
2013-03-01 03:32:00,37.0,28.8,29.85,NW,315,3.3,3.3,72,0.00,CLR,,0.00,WeatherDisplay:10.37,2013-03-01 08:32:00,
2013-03-01 03:37:00,37.0,28.5,29.85,NW,315,3.5,3.5,71,0.00,CLR,,0.00,WeatherDisplay:10.37,2013-03-01 08:37:00,
2013-03-01 03:42:00,37.0,28.5,29.84,NW,315,3.5,3.5,71,0.00,CLR,,0.00,WeatherDisplay:10.37,2013-03-01 08:42:00,
2013-03-01 03:47:00,37.2,29.0,29.84,NW,315,0.0,0.0,72,0.00,CLR,,0.00,WeatherDisplay:10.37,2013-03-01 08:47:00,
2013-03-01 03:52:00,36.9,28.7,29.84,WNW,292,3.5,3.5,72,0.00,CLR,,0.00,WeatherDisplay:10.37,2013-03-01 08:52:00,
2013-03-01 03:57:00,36.7,28.9,29.84,WNW,292,2.3,2.3,73,0.00,CLR,,0.00,WeatherDisplay:10.37,2013-03-01 08:57:00,
2013-03-01 04:02:00,36.5,28.7,29.84,WNW,292,0.0,0.0,73,0.00,CLR,,0.00,WeatherDisplay:10.37,2013-03-01 09:02:00,
2013-03-01 04:07:00,36.1,28.6,29.84,WNW,292,0.0,0.0,74,0.00,CLR,,0.00,WeatherDisplay:10.37,2013-03-01 09:07:00,
2013-03-01 04:12:00,35.8,28.3,29.84,NW,315,0.0,0.0,74,0.00,CLR,,0.00,WeatherDisplay:10.37,2013-03-01 09:12:00,
2013-03-01 04:17:00,35.6,28.1,29.84,NW,315,2.3,2.3,74,0.00,CLR,,0.00,WeatherDisplay:10.37,2013-03-01 09:17:00,
2013-03-01 04:22:00,35.6,28.5,29.84,NW,315,0.0,0.0,75,0.00,CLR,,0.00,WeatherDisplay:10.37,2013-03-01 09:22:00,
2013-03-01 04:27:00,35.4,28.3,29.84,NW,315,1.1,1.1,75,0.00,CLR,,0.00,WeatherDisplay:10.37,2013-03-01 09:27:00,
2013-03-01 04:32:00,35.6,28.1,29.84,NNW,338,2.3,0.0,74,0.00,CLR,,0.00,WeatherDisplay:10.37,2013-03-01 09:32:00,
2013-03-01 04:37:00,35.6,28.1,29.84,NNW,338,0.0,0.0,74,0.00,CLR,,0.00,WeatherDisplay:10.37,2013-03-01 09:37:00,
2013-03-01 04:42:00,35.4,27.9,29.84,NW,315,2.3,2.4,74,0.00,CLR,,0.00,WeatherDisplay:10.37,2013-03-01 09:42:00,
2013-03-01 04:47:00,35.6,28.1,29.84,WNW,292,3.5,3.5,74,0.00,CLR,,0.00,WeatherDisplay:10.37,2013-03-01 09:47:00,
2013-03-01 04:52:00,35.4,27.9,29.85,WNW,292,0.0,0.0,74,0.00,CLR,,0.00,WeatherDisplay:10.37,2013-03-01 09:52:00,
2013-03-01 04:57:00,35.4,27.9,29.85,NW,315,1.1,0.0,74,0.00,CLR,,0.00,WeatherDisplay:10.37,2013-03-01 09:57:00,
2013-03-01 05:02:00,35.2,27.7,29.85,WNW,292,3.5,3.5,74,0.00,CLR,,0.00,WeatherDisplay:10.37,2013-03-01 10:02:00,
2013-03-01 05:07:00,35.2,28.4,29.85,WNW,292,0.0,0.0,76,0.00,CLR,,0.00,WeatherDisplay:10.37,2013-03-01 10:07:00,
2013-03-01 05:12:00,35.1,28.0,29.85,WNW,292,2.5,2.5,75,0.00,CLR,,0.00,WeatherDisplay:10.37,2013-03-01 10:12:00,
2013-03-01 05:17:00,35.1,28.0,29.86,NNW,338,0.0,0.0,75,0.00,CLR,,0.00,WeatherDisplay:10.37,2013-03-01 10:17:00,
2013-03-01 05:22:00,35.1,28.6,29.86,NNW,338,0.0,0.0,77,0.00,CLR,,0.00,WeatherDisplay:10.37,2013-03-01 10:22:00,
2013-03-01 05:27:00,34.7,28.2,29.86,NNW,338,0.0,0.0,77,0.00,CLR,,0.00,WeatherDisplay:10.37,2013-03-01 10:27:00,
2013-03-01 05:32:00,34.5,28.0,29.86,NNW,338,0.0,0.0,77,0.00,CLR,,0.00,WeatherDisplay:10.37,2013-03-01 10:32:00,
2013-03-01 05:37:00,34.3,27.8,29.86,NW,315,2.3,2.3,77,0.00,CLR,,0.00,WeatherDisplay:10.37,2013-03-01 10:37:00,
2013-03-01 05:43:00,34.0,27.5,29.86,NW,315,0.0,0.0,77,0.00,CLR,,0.00,WeatherDisplay:10.37,2013-03-01 10:43:00,
2013-03-01 05:48:00,34.0,28.2,29.86,NW,315,0.0,0.0,79,0.00,CLR,,0.00,WeatherDisplay:10.37,2013-03-01 10:48:00,
2013-03-01 05:53:00,34.0,28.5,29.86,NW,315,0.0,0.0,80,0.00,CLR,,0.00,WeatherDisplay:10.37,2013-03-01 10:53:00,
2013-03-01 05:58:00,33.6,27.8,29.86,NW,315,0.0,0.0,79,0.00,CLR,,0.00,WeatherDisplay:10.37,2013-03-01 10:58:00,
2013-03-01 06:03:00,33.6,28.1,29.86,NW,315,0.0,0.0,80,0.00,CLR,,0.00,WeatherDisplay:10.37,2013-03-01 11:03:00,
2013-03-01 06:08:00,33.8,28.9,29.86,NW,315,0.0,0.0,82,0.00,CLR,,0.00,WeatherDisplay:10.37,2013-03-01 11:08:00,
2013-03-01 06:13:00,33.4,28.5,29.86,NW,315,0.0,0.0,82,0.00,CLR,,0.00,WeatherDisplay:10.37,2013-03-01 11:13:00,
2013-03-01 06:18:00,33.1,28.2,29.87,NW,315,0.0,0.0,82,0.00,CLR,,0.00,WeatherDisplay:10.37,2013-03-01 11:18:00,
2013-03-01 06:23:00,33.3,28.4,29.87,NNW,338,0.0,0.0,82,0.00,CLR,,0.00,WeatherDisplay:10.37,2013-03-01 11:23:00,
2013-03-01 06:28:00,33.4,28.5,29.87,NW,315,3.5,3.5,82,0.00,CLR,,0.00,WeatherDisplay:10.37,2013-03-01 11:28:00,
2013-03-01 06:33:00,33.6,28.1,29.87,NW,315,1.1,1.1,80,0.00,CLR,,0.00,WeatherDisplay:10.37,2013-03-01 11:33:00,
2013-03-01 06:38:00,34.0,28.2,29.87,NW,315,3.5,3.5,79,0.00,CLR,,0.00,WeatherDisplay:10.37,2013-03-01 11:38:00,
2013-03-01 06:43:00,34.3,27.8,29.87,NNW,338,2.5,2.5,77,0.00,CLR,,0.00,WeatherDisplay:10.37,2013-03-01 11:43:00,
2013-03-01 06:48:00,34.7,28.2,29.87,NNW,338,1.1,1.1,77,0.00,CLR,,0.00,WeatherDisplay:10.37,2013-03-01 11:48:00,
2013-03-01 06:53:00,34.9,28.1,29.88,NW,315,0.0,0.0,76,0.00,CLR,,0.00,WeatherDisplay:10.37,2013-03-01 11:53:00,
2013-03-01 06:58:00,35.2,28.1,29.88,NNW,338,3.5,3.5,75,0.00,CLR,,0.00,WeatherDisplay:10.37,2013-03-01 11:58:00,
2013-03-01 07:03:00,35.4,27.9,29.87,NW,315,3.5,3.5,74,0.00,CLR,,0.00,WeatherDisplay:10.37,2013-03-01 12:03:00,
2013-03-01 07:08:00,35.6,28.1,29.87,NW,315,3.5,3.5,74,0.00,CLR,,0.00,WeatherDisplay:10.37,2013-03-01 12:08:00,
2013-03-01 07:13:00,36.0,28.5,29.87,North,360,5.6,5.6,74,0.00,CLR,,0.00,WeatherDisplay:10.37,2013-03-01 12:13:00,
2013-03-01 07:18:00,36.0,28.2,29.87,ENE,68,8.1,8.1,73,0.00,CLR,,0.00,WeatherDisplay:10.37,2013-03-01 12:18:00,
2013-03-01 07:23:00,36.3,28.5,29.87,West,270,5.8,5.8,73,0.00,CLR,,0.00,WeatherDisplay:10.37,2013-03-01 12:23:00,
2013-03-01 07:28:00,36.3,28.5,29.87,NW,315,6.9,6.9,73,0.00,CLR,,0.00,WeatherDisplay:10.37,2013-03-01 12:28:00,
2013-03-01 07:33:00,36.5,28.3,29.87,NNW,338,4.8,4.8,72,0.00,CLR,,0.00,WeatherDisplay:10.37,2013-03-01 12:33:00,
2013-03-01 07:38:00,36.7,28.5,29.87,North,360,6.9,6.9,72,0.00,CLR,,0.00,WeatherDisplay:10.37,2013-03-01 12:38:00,
2013-03-01 07:43:00,36.9,28.7,29.87,NNW,338,5.8,5.8,72,0.00,CLR,,0.00,WeatherDisplay:10.37,2013-03-01 12:43:00,
2013-03-01 07:48:00,37.2,29.0,29.87,NW,315,3.5,3.5,72,0.00,CLR,,0.00,WeatherDisplay:10.37,2013-03-01 12:48:00,
2013-03-01 07:53:00,37.8,29.2,29.89,WNW,292,4.8,4.8,71,0.00,CLR,,0.00,WeatherDisplay:10.37,2013-03-01 12:53:00,
2013-03-01 07:58:00,38.3,29.4,29.89,West,270,4.0,4.0,70,0.00,CLR,,0.00,WeatherDisplay:10.37,2013-03-01 12:58:00,
2013-03-01 08:03:00,38.7,29.8,29.89,NW,315,3.5,3.5,70,0.00,CLR,,0.00,WeatherDisplay:10.37,2013-03-01 13:03:00,
2013-03-01 08:08:00,38.8,29.8,29.89,NNW,338,5.8,5.8,70,0.00,CLR,,0.00,WeatherDisplay:10.37,2013-03-01 13:08:00,
2013-03-01 08:13:00,39.6,30.3,29.89,NNW,338,5.8,5.8,69,0.00,CLR,,0.00,WeatherDisplay:10.37,2013-03-01 13:13:00,
2013-03-01 08:18:00,39.7,30.0,29.89,NW,315,4.6,4.6,68,0.00,CLR,,0.00,WeatherDisplay:10.37,2013-03-01 13:18:00,
2013-03-01 08:23:00,40.1,30.0,29.89,NW,315,4.6,4.8,67,0.00,CLR,,0.00,WeatherDisplay:10.37,2013-03-01 13:23:00,
2013-03-01 08:28:00,40.1,30.0,29.89,NW,315,4.8,4.8,67,0.00,CLR,,0.00,WeatherDisplay:10.37,2013-03-01 13:28:00,
2013-03-01 08:33:00,40.8,30.7,29.89,WNW,292,8.1,8.1,67,0.00,CLR,,0.00,WeatherDisplay:10.37,2013-03-01 13:33:00,
2013-03-01 08:38:00,41.2,30.3,29.89,NNE,22,11.5,11.5,65,0.00,CLR,,0.00,WeatherDisplay:10.37,2013-03-01 13:38:00,
2013-03-01 08:43:00,41.5,30.6,29.88,ESE,112,6.9,6.9,65,0.00,CLR,,0.00,WeatherDisplay:10.37,2013-03-01 13:43:00,
2013-03-01 08:48:00,41.0,29.7,29.88,North,360,7.1,7.1,64,0.00,CLR,,0.00,WeatherDisplay:10.37,2013-03-01 13:48:00,
2013-03-01 08:53:00,41.7,30.0,29.88,NNE,22,10.4,10.4,63,0.00,CLR,,0.00,WeatherDisplay:10.37,2013-03-01 13:53:00,
2013-03-01 08:58:00,43.3,31.1,29.88,NE,45,8.6,8.6,62,0.00,CLR,,0.00,WeatherDisplay:10.37,2013-03-01 13:58:00,
2013-03-01 09:03:00,43.5,30.9,29.87,NNW,338,9.2,9.2,61,0.00,CLR,,0.00,WeatherDisplay:10.37,2013-03-01 14:03:00,
2013-03-01 09:08:00,43.9,30.9,29.87,NNE,22,10.2,10.2,60,0.00,CLR,,0.00,WeatherDisplay:10.37,2013-03-01 14:08:00,
2013-03-01 09:13:00,44.4,30.5,29.87,WNW,292,13.8,13.8,58,0.00,CLR,,0.00,WeatherDisplay:10.37,2013-03-01 14:13:00,
2013-03-01 09:19:00,44.6,30.7,29.87,NNW,338,8.1,8.1,58,0.00,CLR,,0.00,WeatherDisplay:10.37,2013-03-01 14:19:00,
2013-03-01 09:24:00,45.1,30.8,29.87,NNW,338,6.9,7.1,57,0.00,CLR,,0.00,WeatherDisplay:10.37,2013-03-01 14:24:00,
2013-03-01 09:29:00,45.0,30.2,29.87,NE,45,10.4,10.4,56,0.00,CLR,,0.00,WeatherDisplay:10.37,2013-03-01 14:29:00,
2013-03-01 09:34:00,45.7,30.9,29.87,NE,45,8.1,8.1,56,0.00,CLR,,0.00,WeatherDisplay:10.37,2013-03-01 14:34:00,
2013-03-01 09:39:00,46.2,30.5,29.87,NNW,338,11.5,11.5,54,0.00,CLR,,0.00,WeatherDisplay:10.37,2013-03-01 14:39:00,
2013-03-01 09:44:00,46.8,30.6,29.87,NNE,22,11.5,11.5,53,0.00,CLR,,0.00,WeatherDisplay:10.37,2013-03-01 14:44:00,
2013-03-01 09:49:00,47.1,30.8,29.87,NE,45,8.1,8.1,53,0.00,CLR,,0.00,WeatherDisplay:10.37,2013-03-01 14:49:00,
2013-03-01 09:54:00,48.0,30.2,29.86,ENE,68,11.5,11.5,50,0.00,CLR,,0.00,WeatherDisplay:10.37,2013-03-01 14:54:00,
2013-03-01 09:59:00,47.8,31.0,29.86,NW,315,6.9,6.9,52,0.00,CLR,,0.00,WeatherDisplay:10.37,2013-03-01 14:59:00,
2013-03-01 10:04:00,48.9,31.5,29.86,WNW,292,10.4,10.4,51,0.00,CLR,,0.00,WeatherDisplay:10.37,2013-03-01 15:04:00,
2013-03-01 10:09:00,49.1,30.7,29.86,WNW,292,7.1,7.1,49,0.00,CLR,,0.00,WeatherDisplay:10.37,2013-03-01 15:09:00,
2013-03-01 10:14:00,48.9,30.1,29.86,East,90,6.9,6.9,48,0.00,CLR,,0.00,WeatherDisplay:10.37,2013-03-01 15:14:00,
2013-03-01 10:19:00,49.1,30.2,29.85,NE,45,9.2,9.2,48,0.00,CLR,,0.00,WeatherDisplay:10.37,2013-03-01 15:19:00,
2013-03-01 10:24:00,50.0,30.0,29.85,WNW,292,10.4,10.4,46,0.00,CLR,,0.00,WeatherDisplay:10.37,2013-03-01 15:24:00,
2013-03-01 10:29:00,50.4,30.9,29.86,East,90,5.8,5.8,47,0.00,CLR,,0.00,WeatherDisplay:10.37,2013-03-01 15:29:00,
2013-03-01 10:34:00,51.1,30.5,29.86,North,360,4.6,4.6,45,0.00,CLR,,0.00,WeatherDisplay:10.37,2013-03-01 15:34:00,
2013-03-01 10:39:00,50.5,29.9,29.86,NE,45,8.1,8.1,45,0.00,CLR,,0.00,WeatherDisplay:10.37,2013-03-01 15:39:00,
2013-03-01 10:44:00,50.4,29.3,29.86,NE,45,9.2,9.2,44,0.00,CLR,,0.00,WeatherDisplay:10.37,2013-03-01 15:44:00,
2013-03-01 10:49:00,49.8,28.7,29.86,WNW,292,9.2,9.2,44,0.00,CLR,,0.00,WeatherDisplay:10.37,2013-03-01 15:49:00,
2013-03-01 10:54:00,50.0,27.2,29.86,NE,45,8.6,8.6,41,0.00,CLR,,0.00,WeatherDisplay:10.37,2013-03-01 15:54:00,
2013-03-01 10:59:00,50.5,27.7,29.86,WNW,292,4.8,4.8,41,0.00,CLR,,0.00,WeatherDisplay:10.37,2013-03-01 15:59:00,
2013-03-01 11:04:00,52.2,28.6,29.86,NW,315,5.8,5.8,40,0.00,CLR,,0.00,WeatherDisplay:10.37,2013-03-01 16:04:00,
2013-03-01 11:09:00,52.9,28.0,29.86,WNW,292,6.9,6.9,38,0.00,CLR,,0.00,WeatherDisplay:10.37,2013-03-01 16:09:00,
2013-03-01 11:14:00,51.8,28.8,29.86,SE,135,4.0,4.0,41,0.00,CLR,,0.00,WeatherDisplay:10.37,2013-03-01 16:14:00,
2013-03-01 11:19:00,50.7,27.2,29.86,WNW,292,8.1,8.1,40,0.00,CLR,,0.00,WeatherDisplay:10.37,2013-03-01 16:19:00,
2013-03-01 11:24:00,53.1,28.8,29.86,NW,315,5.8,5.8,39,0.00,CLR,,0.00,WeatherDisplay:10.37,2013-03-01 16:24:00,
2013-03-01 11:29:00,52.0,27.1,29.87,WNW,292,6.9,6.9,38,0.00,CLR,,0.00,WeatherDisplay:10.37,2013-03-01 16:29:00,
2013-03-01 11:34:00,52.9,27.3,29.87,North,360,6.9,6.9,37,0.00,CLR,,0.00,WeatherDisplay:10.37,2013-03-01 16:34:00,
2013-03-01 11:39:00,51.8,27.6,29.86,WNW,292,7.1,7.1,39,0.00,CLR,,0.00,WeatherDisplay:10.37,2013-03-01 16:39:00,
2013-03-01 11:44:00,51.6,28.0,29.86,NNE,22,6.9,6.9,40,0.00,CLR,,0.00,WeatherDisplay:10.37,2013-03-01 16:44:00,
2013-03-01 11:49:00,53.4,27.8,29.86,NW,315,7.1,7.1,37,0.00,CLR,,0.00,WeatherDisplay:10.37,2013-03-01 16:49:00,
2013-03-01 11:54:00,54.0,28.9,29.86,NNW,338,5.8,5.8,38,0.00,CLR,,0.00,WeatherDisplay:10.37,2013-03-01 16:54:00,
2013-03-01 11:59:00,51.6,27.4,29.86,SE,135,5.8,5.8,39,0.00,CLR,,0.00,WeatherDisplay:10.37,2013-03-01 16:59:00,
2013-03-01 12:04:00,53.4,29.7,29.85,WNW,292,5.8,5.8,40,0.00,CLR,,0.00,WeatherDisplay:10.37,2013-03-01 17:04:00,
2013-03-01 12:09:00,53.6,29.8,29.85,SW,225,2.3,2.3,40,0.00,CLR,,0.00,WeatherDisplay:10.37,2013-03-01 17:09:00,
2013-03-01 12:14:00,54.3,29.2,29.85,West,270,5.8,5.8,38,0.00,CLR,,0.00,WeatherDisplay:10.37,2013-03-01 17:14:00,
2013-03-01 12:19:00,55.2,29.4,29.85,South,180,5.8,5.8,37,0.00,CLR,,0.00,WeatherDisplay:10.37,2013-03-01 17:19:00,
2013-03-01 12:24:00,57.7,32.9,29.85,West,270,8.1,8.1,39,0.00,CLR,,0.00,WeatherDisplay:10.37,2013-03-01 17:24:00,
2013-03-01 12:29:00,55.4,30.8,29.85,SW,225,5.8,5.8,39,0.00,CLR,,0.00,WeatherDisplay:10.37,2013-03-01 17:29:00,
2013-03-01 12:34:00,54.1,28.4,29.85,West,270,4.6,4.6,37,0.00,CLR,,0.00,WeatherDisplay:10.37,2013-03-01 17:34:00,
2013-03-01 12:39:00,54.3,29.8,29.85,SW,225,5.8,5.8,39,0.00,CLR,,0.00,WeatherDisplay:10.37,2013-03-01 17:39:00,
2013-03-01 12:44:00,54.3,31.1,29.84,West,270,6.9,6.9,41,0.00,CLR,,0.00,WeatherDisplay:10.37,2013-03-01 17:44:00,
2013-03-01 12:49:00,53.8,31.2,29.84,West,270,5.8,5.8,42,0.00,CLR,,0.00,WeatherDisplay:10.37,2013-03-01 17:49:00,
2013-03-01 12:54:00,57.4,33.3,29.84,West,270,0.0,0.0,40,0.00,CLR,,0.00,WeatherDisplay:10.37,2013-03-01 17:54:00,
2013-03-01 12:59:00,55.0,31.1,29.84,WSW,248,6.9,6.9,40,0.00,CLR,,0.00,WeatherDisplay:10.37,2013-03-01 17:59:00,
2013-03-01 13:04:00,54.5,30.6,29.83,SW,225,6.9,6.9,40,0.00,CLR,,0.00,WeatherDisplay:10.37,2013-03-01 18:04:00,
2013-03-01 13:09:00,54.5,31.9,29.83,West,270,5.8,5.8,42,0.00,CLR,,0.00,WeatherDisplay:10.37,2013-03-01 18:09:00,
2013-03-01 13:14:00,57.4,32.0,29.83,SW,225,6.9,6.9,38,0.00,CLR,,0.00,WeatherDisplay:10.37,2013-03-01 18:14:00,
2013-03-01 13:19:00,58.5,33.0,29.82,West,270,9.2,9.2,38,0.00,CLR,,0.00,WeatherDisplay:10.37,2013-03-01 18:19:00,
2013-03-01 13:24:00,55.8,32.4,29.82,West,270,5.8,5.8,41,0.00,CLR,,0.00,WeatherDisplay:10.37,2013-03-01 18:24:00,
2013-03-01 13:29:00,54.7,32.6,29.82,West,270,6.9,6.9,43,0.00,CLR,,0.00,WeatherDisplay:10.37,2013-03-01 18:29:00,
2013-03-01 13:34:00,54.5,32.4,29.82,SSW,202,4.6,4.6,43,0.00,CLR,,0.00,WeatherDisplay:10.37,2013-03-01 18:34:00,
2013-03-01 13:39:00,53.8,30.6,29.82,West,270,8.1,8.1,41,0.00,CLR,,0.00,WeatherDisplay:10.37,2013-03-01 18:39:00,
2013-03-01 13:45:00,52.9,31.6,29.82,SE,135,5.8,5.8,44,0.00,CLR,,0.00,WeatherDisplay:10.37,2013-03-01 18:45:00,
2013-03-01 13:50:00,54.7,32.6,29.82,SSW,202,7.1,7.1,43,0.00,CLR,,0.00,WeatherDisplay:10.37,2013-03-01 18:50:00,
2013-03-01 13:55:00,55.2,31.9,29.82,West,270,4.6,4.6,41,0.00,CLR,,0.00,WeatherDisplay:10.37,2013-03-01 18:55:00,
2013-03-01 14:00:00,55.2,31.9,29.82,West,270,3.5,3.5,41,0.00,CLR,,0.00,WeatherDisplay:10.37,2013-03-01 19:00:00,
2013-03-01 14:05:00,55.4,31.5,29.82,SW,225,6.9,6.9,40,0.00,CLR,,0.00,WeatherDisplay:10.37,2013-03-01 19:05:00,
2013-03-01 14:10:00,57.9,32.4,29.82,SW,225,5.8,5.8,38,0.00,CLR,,0.00,WeatherDisplay:10.37,2013-03-01 19:10:00,
2013-03-01 14:15:00,56.7,31.4,29.82,West,270,5.8,5.8,38,0.00,CLR,,0.00,WeatherDisplay:10.37,2013-03-01 19:15:00,
2013-03-01 14:20:00,54.9,32.8,29.82,West,270,3.5,3.5,43,0.00,CLR,,0.00,WeatherDisplay:10.37,2013-03-01 19:20:00,
2013-03-01 14:25:00,53.8,32.4,29.82,WSW,248,4.0,4.0,44,0.00,CLR,,0.00,WeatherDisplay:10.37,2013-03-01 19:25:00,
2013-03-01 14:30:00,54.9,32.2,29.82,WSW,248,5.8,5.8,42,0.00,CLR,,0.00,WeatherDisplay:10.37,2013-03-01 19:30:00,
2013-03-01 14:35:00,55.4,32.7,29.82,West,270,5.8,5.8,42,0.00,CLR,,0.00,WeatherDisplay:10.37,2013-03-01 19:35:00,
2013-03-01 14:40:00,55.4,32.7,29.81,WSW,248,4.8,4.8,42,0.00,CLR,,0.00,WeatherDisplay:10.37,2013-03-01 19:40:00,
2013-03-01 14:45:00,56.1,34.5,29.81,West,270,5.8,5.8,44,0.00,CLR,,0.00,WeatherDisplay:10.37,2013-03-01 19:45:00,
2013-03-01 14:50:00,54.1,32.1,29.81,West,270,8.1,8.1,43,0.00,CLR,,0.00,WeatherDisplay:10.37,2013-03-01 19:50:00,
2013-03-01 14:55:00,54.5,33.0,29.81,WSW,248,8.1,8.1,44,0.00,CLR,,0.00,WeatherDisplay:10.37,2013-03-01 19:55:00,
2013-03-01 15:00:00,54.9,32.8,29.81,WSW,248,8.1,8.1,43,0.00,CLR,,0.00,WeatherDisplay:10.37,2013-03-01 20:00:00,
2013-03-01 15:05:00,56.8,33.3,29.81,West,270,9.2,9.2,41,0.00,CLR,,0.00,WeatherDisplay:10.37,2013-03-01 20:05:00,
2013-03-01 15:10:00,57.2,33.7,29.81,West,270,5.8,5.8,41,0.00,CLR,,0.00,WeatherDisplay:10.37,2013-03-01 20:10:00,
2013-03-01 15:15:00,57.9,33.1,29.81,West,270,5.8,5.8,39,0.00,CLR,,0.00,WeatherDisplay:10.37,2013-03-01 20:15:00,
2013-03-01 15:20:00,56.8,33.9,29.81,West,270,6.9,6.9,42,0.00,CLR,,0.00,WeatherDisplay:10.37,2013-03-01 20:20:00,
2013-03-01 15:25:00,56.5,33.7,29.81,WSW,248,7.1,7.1,42,0.00,CLR,,0.00,WeatherDisplay:10.37,2013-03-01 20:25:00,
2013-03-01 15:30:00,55.8,34.8,29.81,West,270,5.8,5.8,45,0.00,CLR,,0.00,WeatherDisplay:10.37,2013-03-01 20:30:00,
2013-03-01 15:35:00,55.6,34.6,29.81,WSW,248,5.8,5.8,45,0.00,CLR,,0.00,WeatherDisplay:10.37,2013-03-01 20:35:00,
2013-03-01 15:40:00,55.6,34.6,29.81,West,270,4.0,4.0,45,0.00,CLR,,0.00,WeatherDisplay:10.37,2013-03-01 20:40:00,
2013-03-01 15:45:00,55.4,34.4,29.81,West,270,5.8,5.8,45,0.00,CLR,,0.00,WeatherDisplay:10.37,2013-03-01 20:45:00,
2013-03-01 15:50:00,54.5,34.7,29.81,West,270,5.8,5.8,47,0.00,CLR,,0.00,WeatherDisplay:10.37,2013-03-01 20:50:00,
2013-03-01 15:55:00,54.0,35.3,29.81,SW,225,5.8,5.8,49,0.00,CLR,,0.00,WeatherDisplay:10.37,2013-03-01 20:55:00,
2013-03-01 16:00:00,54.1,34.8,29.81,West,270,3.5,3.5,48,0.00,CLR,,0.00,WeatherDisplay:10.37,2013-03-01 21:00:00,
2013-03-01 16:05:00,53.8,34.6,29.81,WNW,292,4.0,4.0,48,0.00,CLR,,0.00,WeatherDisplay:10.37,2013-03-01 21:05:00,
2013-03-01 16:10:00,53.2,34.5,29.81,West,270,6.9,6.9,49,0.00,CLR,,0.00,WeatherDisplay:10.37,2013-03-01 21:10:00,
2013-03-01 16:15:00,52.7,34.1,29.82,NW,315,3.5,3.5,49,0.00,CLR,,0.00,WeatherDisplay:10.37,2013-03-01 21:15:00,
2013-03-01 16:20:00,52.5,34.4,29.82,West,270,3.5,3.5,50,0.00,CLR,,0.00,WeatherDisplay:10.37,2013-03-01 21:20:00,
2013-03-01 16:25:00,52.7,35.1,29.82,West,270,3.5,3.5,51,0.00,CLR,,0.00,WeatherDisplay:10.37,2013-03-01 21:25:00,
2013-03-01 16:30:00,52.7,35.6,29.82,WSW,248,4.6,4.6,52,0.00,CLR,,0.00,WeatherDisplay:10.37,2013-03-01 21:30:00,
2013-03-01 16:35:00,52.9,35.7,29.82,West,270,4.6,4.6,52,0.00,CLR,,0.00,WeatherDisplay:10.37,2013-03-01 21:35:00,
2013-03-01 16:40:00,52.9,35.7,29.82,WSW,248,5.8,5.8,52,0.00,CLR,,0.00,WeatherDisplay:10.37,2013-03-01 21:40:00,
2013-03-01 16:45:00,52.5,35.8,29.82,West,270,4.0,4.0,53,0.00,CLR,,0.00,WeatherDisplay:10.37,2013-03-01 21:45:00,
2013-03-01 16:50:00,52.2,36.0,29.82,SW,225,3.5,3.6,54,0.00,CLR,,0.00,WeatherDisplay:10.37,2013-03-01 21:50:00,
2013-03-01 16:55:00,52.0,36.3,29.82,West,270,3.5,3.5,55,0.00,CLR,,0.00,WeatherDisplay:10.37,2013-03-01 21:55:00,
2013-03-01 17:01:00,51.5,35.9,29.82,West,270,4.0,0.0,55,0.00,CLR,,0.00,WeatherDisplay:10.37,2013-03-01 22:01:00,
2013-03-01 17:06:00,51.1,35.9,29.82,West,270,0.0,0.0,56,0.00,CLR,,0.00,WeatherDisplay:10.37,2013-03-01 22:06:00,
2013-03-01 17:11:00,50.9,36.2,29.82,WSW,248,0.0,0.0,57,0.00,CLR,,0.00,WeatherDisplay:10.37,2013-03-01 22:11:00,
2013-03-01 17:17:00,50.9,36.6,29.82,West,270,3.5,0.0,58,0.00,CLR,,0.00,WeatherDisplay:10.37,2013-03-01 22:17:00,
2013-03-01 17:22:00,50.9,37.1,29.82,West,270,2.5,2.5,59,0.00,CLR,,0.00,WeatherDisplay:10.37,2013-03-01 22:22:00,
2013-03-01 17:27:00,50.7,36.9,29.82,West,270,2.3,2.3,59,0.00,CLR,,0.00,WeatherDisplay:10.37,2013-03-01 22:27:00,
2013-03-01 17:32:00,50.4,37.0,29.83,West,270,1.1,1.1,60,0.00,CLR,,0.00,WeatherDisplay:10.37,2013-03-01 22:32:00,
2013-03-01 17:37:00,50.2,37.3,29.83,South,180,2.3,2.3,61,0.00,CLR,,0.00,WeatherDisplay:10.37,2013-03-01 22:37:00,
2013-03-01 17:42:00,50.0,37.5,29.83,NNW,338,1.1,0.0,62,0.00,CLR,,0.00,WeatherDisplay:10.37,2013-03-01 22:42:00,
2013-03-01 17:47:00,49.8,37.3,29.83,West,270,3.5,3.5,62,0.00,CLR,,0.00,WeatherDisplay:10.37,2013-03-01 22:47:00,
2013-03-01 17:52:00,49.8,37.7,29.83,WNW,292,0.0,0.0,63,0.00,CLR,,0.00,WeatherDisplay:10.37,2013-03-01 22:52:00,
2013-03-01 17:57:00,49.6,37.9,29.83,WNW,292,0.0,0.0,64,0.00,CLR,,0.00,WeatherDisplay:10.37,2013-03-01 22:57:00,
2013-03-01 18:02:00,49.5,37.8,29.83,WNW,292,0.0,0.0,64,0.00,CLR,,0.00,WeatherDisplay:10.37,2013-03-01 23:02:00,
2013-03-01 18:07:00,49.3,38.0,29.84,NW,315,1.1,0.0,65,0.00,CLR,,0.00,WeatherDisplay:10.37,2013-03-01 23:07:00,
2013-03-01 18:12:00,49.3,38.0,29.84,West,270,0.0,0.0,65,0.00,CLR,,0.00,WeatherDisplay:10.37,2013-03-01 23:12:00,
2013-03-01 18:17:00,49.3,38.0,29.84,NNW,338,3.5,3.5,65,0.00,CLR,,0.00,WeatherDisplay:10.37,2013-03-01 23:17:00,
2013-03-01 18:22:00,49.3,38.0,29.84,North,360,0.0,0.0,65,0.00,CLR,,0.00,WeatherDisplay:10.37,2013-03-01 23:22:00,
2013-03-01 18:27:00,49.1,37.4,29.84,WNW,292,0.0,0.0,64,0.00,CLR,,0.00,WeatherDisplay:10.37,2013-03-01 23:27:00,
2013-03-01 18:32:00,49.1,37.0,29.84,NW,315,0.0,0.0,63,0.00,CLR,,0.00,WeatherDisplay:10.37,2013-03-01 23:32:00,
2013-03-01 18:37:00,49.1,37.4,29.84,NW,315,0.0,0.0,64,0.00,CLR,,0.00,WeatherDisplay:10.37,2013-03-01 23:37:00,
2013-03-01 18:42:00,48.9,36.9,29.84,NW,315,0.0,0.0,63,0.00,CLR,,0.00,WeatherDisplay:10.37,2013-03-01 23:42:00,
2013-03-01 18:47:00,48.7,36.3,29.84,NW,315,0.0,0.0,62,0.00,CLR,,0.00,WeatherDisplay:10.37,2013-03-01 23:47:00,
2013-03-01 18:52:00,48.6,36.2,29.85,WNW,292,2.5,2.5,62,0.00,CLR,,0.00,WeatherDisplay:10.37,2013-03-01 23:52:00,
2013-03-01 18:57:00,48.6,35.7,29.85,WNW,292,0.0,0.0,61,0.00,CLR,,0.00,WeatherDisplay:10.37,2013-03-01 23:57:00,
2013-03-01 19:02:00,48.6,35.7,29.85,NNW,338,0.0,0.0,61,0.00,CLR,,0.00,WeatherDisplay:10.37,2013-03-02 00:02:00,
2013-03-01 19:07:00,48.6,35.7,29.86,NNW,338,0.0,0.0,61,0.00,CLR,,0.00,WeatherDisplay:10.37,2013-03-02 00:07:00,
2013-03-01 19:12:00,48.4,35.6,29.86,NW,315,0.0,0.0,61,0.00,CLR,,0.00,WeatherDisplay:10.37,2013-03-02 00:12:00,
2013-03-01 19:17:00,48.4,36.0,29.86,NNW,338,0.0,0.0,62,0.00,CLR,,0.00,WeatherDisplay:10.37,2013-03-02 00:17:00,
2013-03-01 19:22:00,48.2,35.4,29.86,NNE,22,4.6,4.6,61,0.00,CLR,,0.00,WeatherDisplay:10.37,2013-03-02 00:22:00,
2013-03-01 19:27:00,48.2,35.4,29.86,NNW,338,3.5,3.5,61,0.00,CLR,,0.00,WeatherDisplay:10.37,2013-03-02 00:27:00,
2013-03-01 19:32:00,48.0,35.2,29.86,NW,315,3.5,3.5,61,0.00,CLR,,0.00,WeatherDisplay:10.37,2013-03-02 00:32:00,
2013-03-01 19:37:00,47.7,35.3,29.86,WNW,292,3.5,3.5,62,0.00,CLR,,0.00,WeatherDisplay:10.37,2013-03-02 00:37:00,
2013-03-01 19:42:00,47.7,35.3,29.87,NW,315,2.5,2.5,62,0.00,CLR,,0.00,WeatherDisplay:10.37,2013-03-02 00:42:00,
2013-03-01 19:47:00,47.5,35.1,29.87,NNE,22,3.5,3.5,62,0.00,CLR,,0.00,WeatherDisplay:10.37,2013-03-02 00:47:00,
2013-03-01 19:52:00,47.3,34.5,29.87,WNW,292,4.6,4.6,61,0.00,CLR,,0.00,WeatherDisplay:10.37,2013-03-02 00:52:00,
2013-03-01 19:57:00,47.1,33.9,29.87,NW,315,3.5,3.5,60,0.00,CLR,,0.00,WeatherDisplay:10.37,2013-03-02 00:57:00,
2013-03-01 20:02:00,47.1,33.1,29.87,NNW,338,6.3,6.3,58,0.00,CLR,,0.00,WeatherDisplay:10.37,2013-03-02 01:02:00,
2013-03-01 20:07:00,46.8,32.8,29.87,NNW,338,3.5,3.5,58,0.00,CLR,,0.00,WeatherDisplay:10.37,2013-03-02 01:07:00,
2013-03-01 20:12:00,46.8,32.8,29.87,WNW,292,3.5,3.5,58,0.00,CLR,,0.00,WeatherDisplay:10.37,2013-03-02 01:12:00,
2013-03-01 20:17:00,46.6,32.6,29.88,North,360,0.0,0.0,58,0.00,CLR,,0.00,WeatherDisplay:10.37,2013-03-02 01:17:00,
2013-03-01 20:22:00,46.4,32.4,29.88,WNW,292,3.5,3.5,58,0.00,CLR,,0.00,WeatherDisplay:10.37,2013-03-02 01:22:00,
2013-03-01 20:27:00,46.4,32.0,29.88,NNW,338,2.3,2.3,57,0.00,CLR,,0.00,WeatherDisplay:10.37,2013-03-02 01:27:00,
2013-03-01 20:32:00,46.2,32.2,29.88,NNW,338,4.8,4.8,58,0.00,CLR,,0.00,WeatherDisplay:10.37,2013-03-02 01:32:00,
2013-03-01 20:37:00,45.9,32.4,29.88,WNW,292,3.5,3.5,59,0.00,CLR,,0.00,WeatherDisplay:10.37,2013-03-02 01:37:00,
2013-03-01 20:42:00,45.9,32.4,29.89,NNW,338,3.3,3.3,59,0.00,CLR,,0.00,WeatherDisplay:10.37,2013-03-02 01:42:00,
2013-03-01 20:47:00,45.9,32.8,29.89,North,360,3.5,0.0,60,0.00,CLR,,0.00,WeatherDisplay:10.37,2013-03-02 01:47:00,
2013-03-01 20:52:00,45.9,32.8,29.89,NW,315,3.5,3.5,60,0.00,CLR,,0.00,WeatherDisplay:10.37,2013-03-02 01:52:00,
2013-03-01 20:57:00,45.7,32.6,29.89,NNW,338,4.8,4.8,60,0.00,CLR,,0.00,WeatherDisplay:10.37,2013-03-02 01:57:00,
2013-03-01 21:02:00,45.7,32.6,29.89,NW,315,3.5,0.0,60,0.00,CLR,,0.00,WeatherDisplay:10.37,2013-03-02 02:02:00,
2013-03-01 21:07:00,45.7,32.6,29.89,North,360,3.5,3.7,60,0.00,CLR,,0.00,WeatherDisplay:10.37,2013-03-02 02:07:00,
2013-03-01 21:12:00,45.7,32.6,29.89,NNW,338,6.9,6.9,60,0.00,CLR,,0.00,WeatherDisplay:10.37,2013-03-02 02:12:00,
2013-03-01 21:17:00,45.7,32.6,29.89,NNE,22,3.5,3.5,60,0.00,CLR,,0.00,WeatherDisplay:10.37,2013-03-02 02:17:00,
2013-03-01 21:22:00,45.7,32.6,29.89,NNE,22,3.5,3.5,60,0.00,CLR,,0.00,WeatherDisplay:10.37,2013-03-02 02:22:00,
2013-03-01 21:27:00,45.5,32.4,29.89,NNW,338,4.0,4.0,60,0.00,CLR,,0.00,WeatherDisplay:10.37,2013-03-02 02:27:00,
2013-03-01 21:32:00,45.5,32.4,29.89,NNE,22,2.3,0.0,60,0.00,CLR,,0.00,WeatherDisplay:10.37,2013-03-02 02:32:00,
2013-03-01 21:37:00,45.5,32.4,29.89,NNW,338,3.5,3.5,60,0.00,CLR,,0.00,WeatherDisplay:10.37,2013-03-02 02:37:00,
2013-03-01 21:42:00,45.5,32.4,29.90,NNW,338,2.3,2.3,60,0.00,CLR,,0.00,WeatherDisplay:10.37,2013-03-02 02:42:00,
2013-03-01 21:47:00,45.5,32.4,29.90,NE,45,0.0,0.0,60,0.00,CLR,,0.00,WeatherDisplay:10.37,2013-03-02 02:47:00,
2013-03-01 21:53:00,45.3,32.6,29.90,NNW,338,3.3,3.3,61,0.00,CLR,,0.00,WeatherDisplay:10.37,2013-03-02 02:53:00,
2013-03-01 21:58:00,45.3,32.6,29.90,NNW,338,0.0,0.0,61,0.00,CLR,,0.00,WeatherDisplay:10.37,2013-03-02 02:58:00,
2013-03-01 22:03:00,45.3,32.6,29.90,NNW,338,0.0,0.0,61,0.00,CLR,,0.00,WeatherDisplay:10.37,2013-03-02 03:03:00,
2013-03-01 22:08:00,45.3,32.6,29.90,North,360,2.3,2.3,61,0.00,CLR,,0.00,WeatherDisplay:10.37,2013-03-02 03:08:00,
2013-03-01 22:13:00,45.3,32.6,29.90,NNW,338,0.0,0.0,61,0.00,CLR,,0.00,WeatherDisplay:10.37,2013-03-02 03:13:00,
2013-03-01 22:18:00,45.1,32.4,29.90,NNW,338,0.0,0.0,61,0.00,CLR,,0.00,WeatherDisplay:10.37,2013-03-02 03:18:00,
2013-03-01 22:23:00,45.1,32.8,29.90,NNW,338,0.0,0.0,62,0.00,CLR,,0.00,WeatherDisplay:10.37,2013-03-02 03:23:00,
2013-03-01 22:28:00,45.0,32.8,29.90,North,360,0.0,0.0,62,0.00,CLR,,0.00,WeatherDisplay:10.37,2013-03-02 03:28:00,
2013-03-01 22:33:00,45.0,32.8,29.90,WNW,292,0.0,0.0,62,0.00,CLR,,0.00,WeatherDisplay:10.37,2013-03-02 03:33:00,
2013-03-01 22:38:00,44.8,33.0,29.90,WNW,292,2.3,2.3,63,0.00,CLR,,0.00,WeatherDisplay:10.37,2013-03-02 03:38:00,
2013-03-01 22:43:00,44.8,33.0,29.90,North,360,0.0,0.0,63,0.00,CLR,,0.00,WeatherDisplay:10.37,2013-03-02 03:43:00,
2013-03-01 22:48:00,44.8,33.0,29.90,NW,315,0.0,0.0,63,0.00,CLR,,0.00,WeatherDisplay:10.37,2013-03-02 03:48:00,
2013-03-01 22:53:00,44.8,33.0,29.90,NW,315,0.0,0.0,63,0.00,CLR,,0.00,WeatherDisplay:10.37,2013-03-02 03:53:00,
2013-03-01 22:58:00,44.6,32.8,29.90,NW,315,0.0,0.0,63,0.00,CLR,,0.00,WeatherDisplay:10.37,2013-03-02 03:58:00,
2013-03-01 23:03:00,44.6,32.8,29.90,NW,315,0.0,0.0,63,0.00,CLR,,0.00,WeatherDisplay:10.37,2013-03-02 04:03:00,
2013-03-01 23:08:00,44.4,32.6,29.89,NW,315,0.0,0.0,63,0.00,CLR,,0.00,WeatherDisplay:10.37,2013-03-02 04:08:00,
2013-03-01 23:13:00,44.2,32.0,29.89,NW,315,0.0,0.0,62,0.00,CLR,,0.00,WeatherDisplay:10.37,2013-03-02 04:13:00,
2013-03-01 23:18:00,43.9,32.1,29.89,NW,315,0.0,0.0,63,0.00,CLR,,0.00,WeatherDisplay:10.37,2013-03-02 04:18:00,
2013-03-01 23:23:00,43.5,32.1,29.89,NW,315,0.0,0.0,64,0.00,CLR,,0.00,WeatherDisplay:10.37,2013-03-02 04:23:00,
2013-03-01 23:28:00,43.2,32.2,29.89,NW,315,0.0,0.0,65,0.00,CLR,,0.00,WeatherDisplay:10.37,2013-03-02 04:28:00,
2013-03-01 23:33:00,42.6,32.0,29.89,NW,315,0.0,0.0,66,0.00,CLR,,0.00,WeatherDisplay:10.37,2013-03-02 04:33:00,
2013-03-01 23:38:00,42.3,32.5,29.89,NW,315,0.0,0.0,68,0.00,CLR,,0.00,WeatherDisplay:10.37,2013-03-02 04:38:00,
2013-03-01 23:43:00,41.9,32.5,29.90,NW,315,0.0,0.0,69,0.00,CLR,,0.00,WeatherDisplay:10.37,2013-03-02 04:43:00,
2013-03-01 23:48:00,41.5,32.1,29.90,NW,315,0.0,0.0,69,0.00,CLR,,0.00,WeatherDisplay:10.37,2013-03-02 04:48:00,
2013-03-01 23:53:00,41.4,32.7,29.90,NW,315,0.0,0.0,71,0.00,CLR,,0.00,WeatherDisplay:10.37,2013-03-02 04:53:00,
2013-03-01 23:58:00,41.0,32.3,29.90,NW,315,0.0,0.0,71,0.00,CLR,,0.00,WeatherDisplay:10.37,2013-03-02 04:58:00,